Location: *
(57.8420°S, 159.8600°W)
Time: 11:00:08
(UTC+00:00)

FENGYUN 3A - Pass Details

Date: 18 May 2021
Orbit: 824 x 836 km, 98.5° (Epoch: 22 June)

Event Time Altitude Azimuth Distance (km) Brightness Sun altitude
Rises 03:23:41 0° 164° (SSE) 3,434 6.5 -7.4°
Reaches altitude 10° 03:26:04 10° 165° (SSE) 2,493 5.8 -7.7°
Maximum altitude 03:31:37 80° 250° (WSW) 869 3.9 -8.3°
Drops below altitude 10° 03:37:06 10° 336° (NNW) 2,463 6.9 -9.0°
Sets 03:39:27 0° 336° (NNW) 3,390 7.6 -9.3°
